Language: 


Des rapports , des résumés tant et plus, au choix de chacun....


Données statistiques de la station
Quotidien Rapport Janvier 19, 2018 Unités:  Anglais    Métrique   les deux
« Précédent Jour
Suivant Jour »
Quotidien Hebdomadaire Mensuel Annuel Actuel
  Haut: Bas: Moyen:
Température: TemperatureC °F -0.8 °F 3.5 °F
Pt de rosée: DewpointC °F -2.0 °F 1.1 °F
Humidité: Humidity % 58 % 84 %
Vitesse du vent: WindSpeedKMH mph 0.0 mph 6 mph
Rafales: WindSpeedGustKMH mph - -
Vent:- - WSW
Pression: PressurehPa in 1003.9 in -
Précipitation: 0.0 in    
Historical Graphs
 
 
Données statistiques pour Janvier 19, 2018
Heure Température Point de rosée Pression Vent Vitesse du vent Refales Humidité Pluie (taux horaire)
TemperatureC °F DewpointC °F PressurehPa in Calm     Humidity % HourlyPrecipMM in
00:01 4.5 °F 4.0 °F 1003.9 in West 11.9 mph 14.8 mph 93 % 0.0 in
00:06 4.4 °F 3.0 °F 1003.9 in West 14.8 mph 15.8 mph 93 % 0.0 in
00:11 4.5 °F 3.0 °F 1003.9 in West 6.9 mph 19.1 mph 92 % 0.0 in
00:16 4.5 °F 3.0 °F 1005.0 in WSW 9.7 mph 19.1 mph 92 % 0.0 in
00:21 4.4 °F 3.0 °F 1005.0 in WSW 17.7 mph 17.7 mph 91 % 0.0 in
00:26 4.5 °F 3.0 °F 1005.0 in WSW 17.7 mph 19.5 mph 91 % 0.0 in
00:32 4.5 °F 3.0 °F 1005.0 in WSW 15.1 mph 19.5 mph 91 % 0.0 in
00:37 4.5 °F 3.0 °F 1005.0 in West 6.9 mph 20.6 mph 91 % 0.0 in
00:42 4.4 °F 3.0 °F 1005.0 in West 12.6 mph 20.6 mph 90 % 0.0 in
00:47 4.4 °F 3.0 °F 1005.0 in WSW 11.9 mph 17.7 mph 89 % 0.0 in
00:52 4.4 °F 3.0 °F 1005.0 in West 16.3 mph 17.7 mph 89 % 0.0 in
00:57 4.4 °F 3.0 °F 1005.0 in West 11.1 mph 16.9 mph 89 % 0.0 in
01:02 4.4 °F 3.0 °F 1003.9 in West 15.4 mph 15.8 mph 89 % 0.0 in
01:07 4.4 °F 3.0 °F 1003.9 in West 12.6 mph 15.4 mph 88 % 0.0 in
01:12 4.4 °F 3.0 °F 1003.9 in WSW 14.0 mph 15.8 mph 88 % 0.0 in
01:17 4.3 °F 3.0 °F 1003.9 in WSW 13.7 mph 15.8 mph 88 % 0.0 in
01:22 4.2 °F 3.0 °F 1003.9 in West 12.2 mph 15.8 mph 87 % 0.0 in
01:27 4.2 °F 3.0 °F 1003.9 in West 9.7 mph 12.2 mph 87 % 0.0 in
01:32 4.1 °F 2.0 °F 1005.0 in West 10.1 mph 12.6 mph 87 % 0.0 in
01:37 4.1 °F 2.0 °F 1005.0 in West 4.7 mph 13.0 mph 87 % 0.0 in
01:42 4.1 °F 2.0 °F 1005.0 in WNW 9.7 mph 17.7 mph 87 % 0.0 in
01:47 4.1 °F 2.0 °F 1005.0 in West 10.1 mph 17.7 mph 87 % 0.0 in
01:52 4.1 °F 2.0 °F 1005.0 in West 12.2 mph 13.7 mph 87 % 0.0 in
01:57 4.1 °F 2.0 °F 1005.0 in WSW 10.1 mph 16.9 mph 87 % 0.0 in
02:02 4.1 °F 2.0 °F 1006.0 in WSW 7.9 mph 16.9 mph 87 % 0.0 in
02:07 4.0 °F 2.0 °F 1006.0 in West 10.1 mph 13.7 mph 87 % 0.0 in
02:12 4.0 °F 2.0 °F 1006.0 in WSW 12.2 mph 16.6 mph 87 % 0.0 in
02:17 4.0 °F 2.0 °F 1006.0 in West 10.1 mph 16.6 mph 87 % 0.0 in
02:22 3.8 °F 2.0 °F 1006.0 in West 9.7 mph 14.0 mph 87 % 0.0 in
02:27 3.8 °F 2.0 °F 1006.0 in WSW 10.5 mph 14.0 mph 87 % 0.0 in
02:32 3.7 °F 2.0 °F 1006.0 in West 9.0 mph 13.7 mph 87 % 0.0 in
02:38 3.6 °F 2.0 °F 1006.0 in WSW 10.1 mph 14.0 mph 87 % 0.0 in
02:43 3.5 °F 2.0 °F 1006.0 in West 10.1 mph 14.0 mph 87 % 0.0 in
02:48 3.4 °F 2.0 °F 1006.0 in WSW 12.2 mph 13.0 mph 87 % 0.0 in
02:53 3.3 °F 2.0 °F 1006.0 in West 9.3 mph 12.6 mph 87 % 0.0 in
02:58 3.2 °F 2.0 °F 1006.0 in WSW 9.3 mph 12.6 mph 87 % 0.0 in
03:03 3.1 °F 1.0 °F 1007.0 in Calm   10.5 mph 87 % 0.0 in
03:08 3.0 °F 1.0 °F 1007.0 in WSW 7.6 mph 12.2 mph 87 % 0.0 in
03:13 2.9 °F 1.0 °F 1007.0 in WSW 9.3 mph 12.2 mph 88 % 0.0 in
03:18 2.9 °F 1.0 °F 1007.0 in West 9.7 mph 12.2 mph 88 % 0.0 in
03:23 2.8 °F 1.0 °F 1007.0 in WSW 9.0 mph 12.2 mph 88 % 0.0 in
03:28 2.6 °F 1.0 °F 1007.0 in WSW 4.3 mph 11.1 mph 88 % 0.0 in
03:33 2.6 °F 1.0 °F 1007.0 in West 10.1 mph 11.1 mph 88 % 0.0 in
03:38 2.5 °F 1.0 °F 1007.0 in West 6.4 mph 10.8 mph 89 % 0.0 in
03:43 2.5 °F 1.0 °F 1007.0 in Calm   10.5 mph 89 % 0.0 in
03:48 2.4 °F 1.0 °F 1007.0 in West 9.3 mph 10.5 mph 89 % 0.0 in
03:53 2.2 °F 1.0 °F 1007.0 in Calm   10.5 mph 89 % 0.0 in
03:58 2.0 °F 1.0 °F 1007.0 in WSW 5.8 mph 10.1 mph 88 % 0.0 in
04:03 1.9 °F 1.0 °F 1007.0 in Calm   9.3 mph 89 % 0.0 in
04:08 1.7 °F 0.0 °F 1007.0 in Calm   7.6 mph 89 % 0.0 in
04:13 1.6 °F 0.0 °F 1007.0 in Calm   6.9 mph 89 % 0.0 in
04:19 1.6 °F 0.0 °F 1007.0 in Calm   6.4 mph 89 % 0.0 in
04:24 1.2 °F 0.0 °F 1007.0 in Calm   5.8 mph 89 % 0.0 in
04:29 1.1 °F 0.0 °F 1007.0 in Calm     89 % 0.0 in
04:34 1.1 °F 0.0 °F 1007.0 in Calm     90 % 0.0 in
04:39 1.0 °F 0.0 °F 1007.0 in Calm   4.0 mph 90 % 0.0 in
04:44 1.0 °F 0.0 °F 1007.0 in Calm   4.0 mph 91 % 0.0 in
04:49 0.9 °F 0.0 °F 1007.0 in Calm   4.0 mph 91 % 0.0 in
04:54 1.0 °F 0.0 °F 1007.0 in Calm   3.2 mph 92 % 0.0 in
04:59 1.0 °F 0.0 °F 1007.0 in Calm     92 % 0.0 in
05:04 1.0 °F 0.0 °F 1007.0 in Calm     93 % 0.0 in
05:09 1.0 °F 0.0 °F 1007.0 in Calm   1.4 mph 93 % 0.0 in
05:14 1.0 °F 0.0 °F 1006.0 in Calm   2.1 mph 93 % 0.0 in
05:19 0.9 °F 0.0 °F 1006.0 in Calm   2.1 mph 94 % 0.0 in
05:24 0.9 °F 0.0 °F 1006.0 in Calm     94 % 0.0 in
05:29 0.8 °F 0.0 °F 1007.0 in Calm   4.7 mph 94 % 0.0 in
05:34 0.7 °F 0.0 °F 1007.0 in Calm   4.7 mph 94 % 0.0 in
05:39 0.7 °F 0.0 °F 1007.0 in WSW 5.8 mph 6.9 mph 94 % 0.0 in
05:44 0.6 °F 0.0 °F 1007.0 in Calm   6.9 mph 93 % 0.0 in
05:49 0.7 °F 0.0 °F 1007.0 in Calm   6.9 mph 94 % 0.0 in
05:54 0.9 °F 0.0 °F 1007.0 in Calm   6.9 mph 94 % 0.0 in
06:00 1.0 °F 1.0 °F 1007.0 in Calm   5.5 mph 95 % 0.0 in
06:05 1.0 °F 1.0 °F 1007.0 in Calm   6.1 mph 95 % 0.0 in
06:10 1.0 °F 1.0 °F 1007.0 in Calm   6.1 mph 95 % 0.0 in
06:15 0.9 °F 1.0 °F 1007.0 in Calm   4.3 mph 95 % 0.0 in
06:20 0.7 °F 0.0 °F 1007.0 in Calm   4.3 mph 95 % 0.0 in
06:25 0.6 °F 0.0 °F 1007.0 in Calm     94 % 0.0 in
06:30 0.5 °F 0.0 °F 1007.0 in Calm     94 % 0.0 in
06:35 0.3 °F 0.0 °F 1007.0 in WSW 3.2 mph 3.2 mph 93 % 0.0 in
06:40 0.1 °F -1.0 °F 1007.0 in Calm   3.2 mph 93 % 0.0 in
06:45 0.0 °F -2.0 °F 1007.0 in Calm     93 % 0.0 in
06:50 -0.1 °F -2.0 °F 1007.0 in Calm     93 % 0.0 in
06:55 -0.2 °F -2.0 °F 1007.0 in Calm     94 % 0.0 in
07:00 -0.2 °F -2.0 °F 1007.0 in Calm     94 % 0.0 in
07:05 0.0 °F -1.0 °F 1007.0 in Calm     95 % 0.0 in
07:10 0.1 °F 0.0 °F 1007.0 in Calm     96 % 0.0 in
07:15 0.1 °F 0.0 °F 1007.0 in Calm     96 % 0.0 in
07:20 -0.1 °F -1.0 °F 1007.0 in Calm     96 % 0.0 in
07:25 -0.3 °F -2.0 °F 1007.0 in Calm     95 % 0.0 in
07:30 -0.3 °F -2.0 °F 1008.0 in Calm     95 % 0.0 in
07:36 -0.1 °F -1.0 °F 1008.0 in Calm     96 % 0.0 in
07:41 -0.1 °F -1.0 °F 1008.0 in Calm     96 % 0.0 in
07:46 -0.1 °F -1.0 °F 1008.0 in Calm     97 % 0.0 in
07:51 -0.1 °F -1.0 °F 1008.0 in Calm     97 % 0.0 in
07:56 -0.3 °F -1.0 °F 1008.0 in Calm     97 % 0.0 in
08:01 -0.4 °F -1.0 °F 1009.0 in Calm     96 % 0.0 in
08:06 -0.5 °F -2.0 °F 1009.0 in Calm     96 % 0.0 in
08:11 -0.6 °F -2.0 °F 1009.0 in Calm     96 % 0.0 in
08:16 -0.6 °F -2.0 °F 1008.0 in Calm   3.5 mph 96 % 0.0 in
08:21 -0.7 °F -2.0 °F 1008.0 in Calm   3.5 mph 96 % 0.0 in
08:26 -0.7 °F -2.0 °F 1008.0 in Calm     97 % 0.0 in
08:31 -0.7 °F -2.0 °F 1009.0 in Calm     97 % 0.0 in
08:36 -0.7 °F -2.0 °F 1009.0 in Calm     97 % 0.0 in
08:41 -0.7 °F -2.0 °F 1009.0 in Calm     97 % 0.0 in
08:46 -0.7 °F -2.0 °F 1009.0 in Calm     97 % 0.0 in
08:51 -0.8 °F -2.0 °F 1009.0 in Calm   5.0 mph 97 % 0.0 in
08:57 -0.7 °F -2.0 °F 1009.0 in Calm   5.0 mph 97 % 0.0 in
09:02 -0.7 °F -1.0 °F 1009.0 in Calm     98 % 0.0 in
09:07 -0.8 °F -2.0 °F 1009.0 in Calm     98 % 0.0 in
09:12 -0.8 °F -2.0 °F 1009.0 in Calm     98 % 0.0 in
09:17 -0.5 °F -1.0 °F 1008.0 in Calm   4.7 mph 98 % 0.0 in
09:22 -0.1 °F -1.0 °F 1008.0 in Calm   4.7 mph 98 % 0.0 in
09:27 0.1 °F 0.0 °F 1008.0 in Calm   4.0 mph 98 % 0.0 in
09:32 0.2 °F 0.0 °F 1009.0 in Calm   4.3 mph 98 % 0.0 in
09:37 0.6 °F 1.0 °F 1009.0 in Calm   4.3 mph 98 % 0.0 in
09:42 0.6 °F 1.0 °F 1009.0 in West 1.4 mph 6.4 mph 98 % 0.0 in
09:47 1.0 °F 1.0 °F 1009.0 in Calm   6.9 mph 98 % 0.0 in
09:52 1.2 °F 1.0 °F 1009.0 in Calm   6.9 mph 98 % 0.0 in
09:57 1.3 °F 1.0 °F 1009.0 in WSW 7.9 mph 7.9 mph 98 % 0.0 in
10:02 1.3 °F 1.0 °F 1009.0 in WSW 7.6 mph 9.0 mph 98 % 0.0 in
10:07 1.9 °F 2.0 °F 1009.0 in Calm   9.0 mph 98 % 0.0 in
10:12 2.1 °F 2.0 °F 1009.0 in West 1.8 mph 6.9 mph 98 % 0.0 in
10:17 2.3 °F 3.0 °F 1009.0 in WSW 7.9 mph 7.9 mph 98 % 0.0 in
10:22 2.5 °F 3.0 °F 1009.0 in Calm   7.9 mph 98 % 0.0 in
10:27 2.6 °F 3.0 °F 1009.0 in Calm   7.9 mph 98 % 0.0 in
10:32 2.6 °F 3.0 °F 1009.0 in WSW 2.1 mph 7.9 mph 98 % 0.0 in
10:37 3.1 °F 3.0 °F 1009.0 in WSW 6.1 mph 9.7 mph 98 % 0.0 in
10:42 3.6 °F 4.0 °F 1009.0 in WSW 9.3 mph 10.5 mph 98 % 0.0 in
10:48 3.9 °F 4.0 °F 1009.0 in WSW 11.1 mph 12.2 mph 98 % 0.0 in
10:53 4.2 °F 4.0 °F 1009.0 in WSW 11.1 mph 12.2 mph 98 % 0.0 in
10:58 4.4 °F 4.0 °F 1009.0 in WSW 9.0 mph 13.7 mph 98 % 0.0 in
11:03 4.7 °F 5.0 °F 1009.0 in WSW 9.3 mph 13.7 mph 98 % 0.0 in
11:08 5.0 °F 5.0 °F 1009.0 in WSW 6.9 mph 12.6 mph 97 % 0.0 in
11:13 5.2 °F 5.0 °F 1009.0 in WSW 7.9 mph 12.6 mph 96 % 0.0 in
11:18 5.5 °F 5.0 °F 1009.0 in WSW 10.1 mph 10.5 mph 95 % 0.0 in
11:23 5.6 °F 5.0 °F 1009.0 in SW 6.9 mph 13.0 mph 94 % 0.0 in
11:28 5.8 °F 5.0 °F 1009.0 in WSW 2.1 mph 13.0 mph 92 % 0.0 in
11:33 5.8 °F 5.0 °F 1010.0 in WSW 9.3 mph 12.2 mph 92 % 0.0 in
11:38 6.0 °F 5.0 °F 1010.0 in WSW 10.5 mph 13.7 mph 89 % 0.0 in
11:43 6.0 °F 5.0 °F 1010.0 in WSW 15.4 mph 18.0 mph 89 % 0.0 in
11:48 6.0 °F 5.0 °F 1010.0 in WSW 14.0 mph 18.0 mph 89 % 0.0 in
11:53 6.3 °F 4.0 °F 1010.0 in WSW 12.6 mph 16.3 mph 84 % 0.0 in
11:58 6.4 °F 4.0 °F 1010.0 in WSW 10.1 mph 15.4 mph 83 % 0.0 in
12:03 6.5 °F 4.0 °F 1010.0 in SW 11.9 mph 15.4 mph 83 % 0.0 in
12:08 6.5 °F 4.0 °F 1010.0 in WSW 9.0 mph 13.0 mph 83 % 0.0 in
12:13 7.0 °F 4.0 °F 1010.0 in WSW 13.7 mph 16.6 mph 81 % 0.0 in
12:18 7.0 °F 4.0 °F 1010.0 in WSW 12.6 mph 16.6 mph 81 % 0.0 in
12:23 7.3 °F 4.0 °F 1010.0 in WSW 15.8 mph 16.9 mph 79 % 0.0 in
12:28 7.3 °F 4.0 °F 1009.0 in WSW 23.3 mph 23.3 mph 77 % 0.0 in
12:33 7.4 °F 4.0 °F 1009.0 in WSW 12.6 mph 23.3 mph 77 % 0.0 in
12:38 7.4 °F 4.0 °F 1009.0 in WSW 14.0 mph 20.1 mph 77 % 0.0 in
12:43 7.4 °F 4.0 °F 1010.0 in WSW 12.6 mph 21.6 mph 77 % 0.0 in
12:48 7.4 °F 4.0 °F 1010.0 in WSW 13.0 mph 21.6 mph 77 % 0.0 in
12:54 7.7 °F 4.0 °F 1010.0 in West 13.7 mph 17.7 mph 75 % 0.0 in
12:59 7.7 °F 4.0 °F 1009.0 in WSW 14.0 mph 17.7 mph 75 % 0.0 in
13:04 7.7 °F 4.0 °F 1009.0 in WSW 12.2 mph 19.8 mph 75 % 0.0 in
13:09 8.0 °F 4.0 °F 1009.0 in WSW 12.2 mph 24.5 mph 73 % 0.0 in
13:14 7.7 °F 3.0 °F 1009.0 in WSW 17.7 mph 24.5 mph 73 % 0.0 in
13:19 7.7 °F 3.0 °F 1009.0 in WSW 16.6 mph 20.9 mph 73 % 0.0 in
13:24 7.7 °F 3.0 °F 1009.0 in WSW 10.1 mph 20.9 mph 73 % 0.0 in
13:29 7.7 °F 3.0 °F 1009.0 in WSW 20.9 mph 23.8 mph 73 % 0.0 in
13:34 7.7 °F 3.0 °F 1009.0 in WSW 12.2 mph 23.8 mph 73 % 0.0 in
13:39 7.7 °F 3.0 °F 1009.0 in WSW 16.9 mph 23.3 mph 73 % 0.0 in
13:44 7.7 °F 3.0 °F 1009.0 in WSW 12.6 mph 22.7 mph 73 % 0.0 in
13:49 7.7 °F 4.0 °F 1009.0 in West 12.2 mph 20.1 mph 75 % 0.0 in
13:54 7.7 °F 4.0 °F 1009.0 in West 14.0 mph 20.1 mph 75 % 0.0 in
13:59 7.7 °F 4.0 °F 1009.0 in WSW 12.2 mph 23.3 mph 75 % 0.0 in
14:04 7.7 °F 4.0 °F 1009.0 in WSW 16.9 mph 23.3 mph 75 % 0.0 in
14:09 7.7 °F 4.0 °F 1009.0 in WSW 16.3 mph 20.9 mph 75 % 0.0 in
14:14 7.6 °F 3.0 °F 1009.0 in WSW 9.7 mph 19.1 mph 74 % 0.0 in
14:19 8.0 °F 4.0 °F 1009.0 in WSW 14.0 mph 16.6 mph 72 % 0.0 in
14:24 8.0 °F 4.0 °F 1009.0 in WNW 9.7 mph 17.7 mph 72 % 0.0 in
14:29 8.0 °F 4.0 °F 1008.0 in West 12.6 mph 20.6 mph 72 % 0.0 in
14:35 8.0 °F 4.0 °F 1008.0 in WSW 13.0 mph 28.0 mph 72 % 0.0 in
14:40 8.0 °F 4.0 °F 1008.0 in West 25.3 mph 28.0 mph 72 % 0.0 in
14:45 8.0 °F 4.0 °F 1009.0 in West 24.8 mph 32.3 mph 72 % 0.0 in
14:50 8.5 °F 1.0 °F 1009.0 in WSW 14.8 mph 32.3 mph 58 % 0.0 in
14:55 8.5 °F 1.0 °F 1009.0 in West 20.9 mph 28.0 mph 58 % 0.0 in
15:00 8.5 °F 1.0 °F 1009.0 in West 12.6 mph 23.8 mph 58 % 0.0 in
15:05 8.5 °F 1.0 °F 1009.0 in West 17.2 mph 23.3 mph 58 % 0.0 in
15:10 8.5 °F 1.0 °F 1009.0 in West 16.6 mph 21.2 mph 58 % 0.0 in
15:15 8.5 °F 1.0 °F 1009.0 in WSW 16.9 mph 24.8 mph 58 % 0.0 in
15:20 8.5 °F 1.0 °F 1009.0 in WSW 16.9 mph 24.8 mph 58 % 0.0 in
15:25 8.5 °F 1.0 °F 1009.0 in West 15.4 mph 24.8 mph 58 % 0.0 in
15:30 8.5 °F 1.0 °F 1009.0 in West 16.9 mph 24.5 mph 58 % 0.0 in
15:35 8.5 °F 1.0 °F 1009.0 in WSW 12.2 mph 24.5 mph 58 % 0.0 in
15:40 8.5 °F 1.0 °F 1009.0 in West 11.1 mph 19.8 mph 58 % 0.0 in
15:45 8.5 °F 1.0 °F 1009.0 in West 16.6 mph 24.8 mph 58 % 0.0 in
15:50 8.0 °F 1.0 °F 1009.0 in WSW 15.4 mph 24.8 mph 59 % 0.0 in
15:55 8.0 °F 1.0 °F 1009.0 in WNW 24.5 mph 27.4 mph 59 % 0.0 in
16:00 8.0 °F 1.0 °F 1009.0 in West 15.4 mph 27.4 mph 59 % 0.0 in
16:05 8.0 °F 1.0 °F 1009.0 in West 16.9 mph 23.8 mph 59 % 0.0 in
16:10 8.0 °F 1.0 °F 1009.0 in West 11.1 mph 23.8 mph 59 % 0.0 in
16:15 7.6 °F 0.0 °F 1008.0 in West 13.7 mph 23.8 mph 58 % 0.0 in
16:20 7.6 °F 0.0 °F 1008.0 in West 10.5 mph 21.2 mph 58 % 0.0 in
16:25 7.3 °F 0.0 °F 1008.0 in WSW 8.7 mph 13.7 mph 61 % 0.0 in
16:30 7.3 °F 0.0 °F 1008.0 in WSW 10.5 mph 17.7 mph 61 % 0.0 in
16:35 7.3 °F 0.0 °F 1008.0 in NW 9.7 mph 17.7 mph 61 % 0.0 in
16:40 7.3 °F 0.0 °F 1008.0 in West 12.6 mph 17.7 mph 61 % 0.0 in
16:45 7.3 °F 0.0 °F 1008.0 in WNW 12.6 mph 15.8 mph 61 % 0.0 in
16:51 7.3 °F 0.0 °F 1008.0 in West 10.1 mph 15.1 mph 61 % 0.0 in
16:56 7.3 °F 0.0 °F 1008.0 in West 6.9 mph 16.9 mph 61 % 0.0 in
17:01 7.3 °F 0.0 °F 1009.0 in West 12.2 mph 16.9 mph 61 % 0.0 in
17:06 7.3 °F 0.0 °F 1009.0 in West 7.9 mph 15.4 mph 61 % 0.0 in
17:11 7.3 °F 0.0 °F 1009.0 in West 1.8 mph 13.0 mph 61 % 0.0 in
17:16 7.3 °F 0.0 °F 1009.0 in West 10.1 mph 11.6 mph 61 % 0.0 in
17:21 7.3 °F 0.0 °F 1009.0 in WSW 9.3 mph 16.3 mph 61 % 0.0 in
17:26 7.3 °F 0.0 °F 1009.0 in West 7.9 mph 16.3 mph 61 % 0.0 in
17:31 4.6 °F 0.0 °F 1009.0 in WSW 9.3 mph 10.5 mph 72 % 0.0 in
17:36 4.4 °F 0.0 °F 1009.0 in West 11.6 mph 12.6 mph 73 % 0.0 in
17:41 4.4 °F 0.0 °F 1009.0 in WSW 9.7 mph 12.6 mph 74 % 0.0 in
17:46 4.2 °F 0.0 °F 1009.0 in WSW 5.5 mph 12.2 mph 74 % 0.0 in
17:51 4.0 °F 0.0 °F 1009.0 in WSW 10.5 mph 10.5 mph 75 % 0.0 in
17:56 3.9 °F 0.0 °F 1009.0 in SW 9.0 mph 10.5 mph 76 % 0.0 in
18:01 3.8 °F 0.0 °F 1009.0 in SSW 5.8 mph 10.5 mph 76 % 0.0 in
18:06 3.7 °F 0.0 °F 1009.0 in SW 5.0 mph 9.0 mph 77 % 0.0 in
18:11 3.7 °F 0.0 °F 1009.0 in SSW 8.7 mph 8.7 mph 77 % 0.0 in
18:16 3.7 °F 0.0 °F 1009.0 in WSW 7.9 mph 9.7 mph 77 % 0.0 in
18:21 3.7 °F 0.0 °F 1009.0 in WSW 5.8 mph 9.7 mph 77 % 0.0 in
18:26 3.7 °F 0.0 °F 1009.0 in Calm   9.7 mph 77 % 0.0 in
18:31 3.7 °F 0.0 °F 1009.0 in Calm   6.4 mph 77 % 0.0 in
18:36 3.7 °F 0.0 °F 1009.0 in Calm   5.5 mph 77 % 0.0 in
18:41 3.7 °F 0.0 °F 1009.0 in Calm     77 % 0.0 in
18:46 3.7 °F 0.0 °F 1009.0 in Calm     77 % 0.0 in
18:51 3.7 °F 0.0 °F 1009.0 in Calm     77 % 0.0 in
18:56 3.7 °F 0.0 °F 1009.0 in Calm   6.1 mph 77 % 0.0 in
19:01 3.7 °F 0.0 °F 1009.0 in WSW 1.4 mph 6.4 mph 77 % 0.0 in
19:06 3.7 °F 0.0 °F 1009.0 in Calm   9.3 mph 77 % 0.0 in
19:11 3.7 °F 0.0 °F 1009.0 in Calm   9.3 mph 77 % 0.0 in
19:16 3.7 °F 0.0 °F 1010.0 in Calm   9.0 mph 77 % 0.0 in
19:21 3.7 °F 0.0 °F 1010.0 in Calm   9.0 mph 77 % 0.0 in
19:26 3.7 °F 0.0 °F 1010.0 in Calm     77 % 0.0 in
19:31 3.7 °F 0.0 °F 1009.0 in Calm     77 % 0.0 in
19:36 3.7 °F 0.0 °F 1009.0 in Calm   7.2 mph 77 % 0.0 in
19:42 2.0 °F 0.0 °F 1009.0 in Calm   7.2 mph 84 % 0.0 in
19:47 2.0 °F 0.0 °F 1009.0 in Calm     84 % 0.0 in
19:52 2.2 °F 0.0 °F 1009.0 in Calm     86 % 0.0 in
19:57 2.2 °F 0.0 °F 1009.0 in SSW 6.4 mph 6.4 mph 86 % 0.0 in
20:02 2.4 °F 1.0 °F 1009.0 in Calm   6.4 mph 87 % 0.0 in
20:07 2.4 °F 1.0 °F 1009.0 in Calm   6.1 mph 86 % 0.0 in
20:12 2.3 °F 1.0 °F 1009.0 in SSW 3.5 mph 4.0 mph 86 % 0.0 in
20:17 2.2 °F 0.0 °F 1009.0 in Calm   4.0 mph 86 % 0.0 in
20:22 2.1 °F 0.0 °F 1009.0 in Calm   3.5 mph 86 % 0.0 in
20:27 2.1 °F 0.0 °F 1009.0 in South 4.3 mph 4.3 mph 86 % 0.0 in
20:32 2.1 °F 0.0 °F 1010.0 in Calm   5.5 mph 86 % 0.0 in
20:37 2.1 °F 1.0 °F 1010.0 in Calm   5.5 mph 87 % 0.0 in
20:42 2.0 °F 1.0 °F 1010.0 in SSW 1.4 mph 5.8 mph 87 % 0.0 in
20:47 2.0 °F 1.0 °F 1009.0 in SSW 5.8 mph 5.8 mph 87 % 0.0 in
20:52 2.1 °F 1.0 °F 1009.0 in Calm   6.9 mph 87 % 0.0 in
20:57 2.3 °F 1.0 °F 1009.0 in Calm   6.9 mph 88 % 0.0 in
21:02 2.4 °F 1.0 °F 1009.0 in SSW 7.9 mph 10.1 mph 88 % 0.0 in
21:07 2.6 °F 1.0 °F 1009.0 in Calm   12.2 mph 89 % 0.0 in
21:12 2.6 °F 1.0 °F 1009.0 in Calm   12.2 mph 89 % 0.0 in
21:17 2.6 °F 1.0 °F 1009.0 in Calm   9.0 mph 89 % 0.0 in
21:22 2.4 °F 1.0 °F 1009.0 in WSW 7.6 mph 7.9 mph 88 % 0.0 in
21:27 2.3 °F 1.0 °F 1009.0 in WSW 9.7 mph 9.7 mph 88 % 0.0 in
21:32 2.4 °F 1.0 °F 1010.0 in Calm   9.7 mph 89 % 0.0 in
21:37 2.5 °F 1.0 °F 1010.0 in Calm   9.7 mph 89 % 0.0 in
21:42 2.5 °F 1.0 °F 1010.0 in Calm   6.9 mph 89 % 0.0 in
21:47 2.5 °F 1.0 °F 1010.0 in Calm   6.4 mph 89 % 0.0 in
21:52 2.4 °F 1.0 °F 1010.0 in Calm   7.2 mph 89 % 0.0 in
21:57 2.3 °F 1.0 °F 1010.0 in Calm   7.2 mph 88 % 0.0 in
22:02 2.3 °F 1.0 °F 1010.0 in Calm   6.9 mph 89 % 0.0 in
22:07 2.1 °F 1.0 °F 1010.0 in SSW 6.1 mph 6.9 mph 88 % 0.0 in
22:13 2.2 °F 1.0 °F 1010.0 in SSW 5.5 mph 7.9 mph 89 % 0.0 in
22:18 2.2 °F 1.0 °F 1010.0 in Calm   7.9 mph 89 % 0.0 in
22:23 2.2 °F 1.0 °F 1010.0 in West 4.3 mph 6.9 mph 90 % 0.0 in
22:28 2.1 °F 1.0 °F 1010.0 in Calm   4.3 mph 90 % 0.0 in
22:33 2.0 °F 1.0 °F 1010.0 in Calm   3.5 mph 89 % 0.0 in
22:38 1.9 °F 1.0 °F 1010.0 in Calm     89 % 0.0 in
22:43 1.7 °F 0.0 °F 1010.0 in Calm     89 % 0.0 in
22:48 1.5 °F 0.0 °F 1010.0 in Calm     89 % 0.0 in
22:53 1.3 °F 0.0 °F 1010.0 in Calm     88 % 0.0 in
22:58 1.1 °F -1.0 °F 1010.0 in Calm     88 % 0.0 in
23:03 1.0 °F -1.0 °F 1010.0 in Calm     88 % 0.0 in
23:08 0.8 °F 0.0 °F 1010.0 in Calm     89 % 0.0 in
23:13 0.7 °F -1.0 °F 1010.0 in Calm     89 % 0.0 in
23:18 0.6 °F -1.0 °F 1010.0 in Calm     89 % 0.0 in
23:23 0.5 °F -1.0 °F 1010.0 in Calm     90 % 0.0 in
23:28 0.4 °F -1.0 °F 1010.0 in Calm     90 % 0.0 in
23:33 0.3 °F -1.0 °F 1010.0 in Calm     90 % 0.0 in
23:38 0.4 °F -1.0 °F 1010.0 in Calm     91 % 0.0 in
23:43 0.5 °F 0.0 °F 1010.0 in Calm     91 % 0.0 in
23:48 0.6 °F 0.0 °F 1010.0 in Calm     92 % 0.0 in
23:53 0.7 °F 0.0 °F 1010.0 in Calm     92 % 0.0 in
23:58 0.7 °F 0.0 °F 1010.0 in Calm     93 % 0.0 in
Le Gheer Warneton
Courtoisie de Weather Underground - 2.25 mb

Mise a jour : 17/02/2018 20:34:11
Généré par Cumulus 1.9.4 (1099)